When you browse on this site, cookies collect data to enhance your experience and personalize the content and advertising you see.
Visit our Privacy Policy to learn more. By continuing to use the site, you agree to this use of cookies and data.
  • In Österreich
  • Länderverzeichnis
  • Für 7 Tage
  • Wassertemperatur
  • Satellitenkarten
  • Wetterkarte
  • News
  • Widgets
  • user-avatar
    Anmelden

    Stündliche Wetter Cordoba

    Heute, 19 Januar, Samstag

    Zeit Temperatur Niederschläge Wind Luftdruck Luftfeuchtigkeit
    00:00 +16°C° 0 mm 1 m/S 728 mmHg 69%
    01:00 +16°C° 0 mm 1 m/S 728 mmHg 70%
    02:00 +15°C° 0 mm 1 m/S 728 mmHg 72%
    03:00 +15°C° 0 mm 1 m/S 728 mmHg 73%
    04:00 +14°C° 0 mm 1 m/S 728 mmHg 74%
    05:00 +14°C° 0 mm 1 m/S 728 mmHg 75%
    06:00 +16°C° 0 mm 1 m/S 728 mmHg 70%
    07:00 +19°C° 0 mm 1 m/S 729 mmHg 65%
    08:00 +20°C° 0 mm 2 m/S 729 mmHg 57%
    09:00 +23°C° 0 mm 2 m/S 729 mmHg 52%
    10:00 +24°C° 0 mm 3 m/S 728 mmHg 47%
    11:00 +26°C° 0 mm 4 m/S 728 mmHg 41%
    12:00 +27°C° 0 mm 4 m/S 728 mmHg 39%
    13:00 +28°C° 0 mm 5 m/S 727 mmHg 37%
    14:00 +29°C° 0 mm 5 m/S 727 mmHg 35%
    15:00 +29°C° 0 mm 5 m/S 726 mmHg 37%
    16:00 +28°C° 0 mm 5 m/S 726 mmHg 38%
    17:00 +28°C° 0 mm 5 m/S 725 mmHg 39%
    18:00 +25°C° 0 mm 5 m/S 725 mmHg 46%
    19:00 +22°C° 0 mm 4 m/S 725 mmHg 53%
    20:00 +20°C° 0 mm 3 m/S 725 mmHg 60%
    21:00 +19°C° 0 mm 3 m/S 726 mmHg 67%
    22:00 +18°C° 0 mm 2 m/S 726 mmHg 74%
    23:00 +17°C° 0 mm 2 m/S 727 mmHg 81%

    Morgen, 20 Januar, Sonntag

    Zeit Temperatur Niederschläge Wind Luftdruck Luftfeuchtigkeit
    00:00 +17°C° 0 mm 2 m/S 726 mmHg 84%
    01:00 +17°C° 0 mm 2 m/S 726 mmHg 87%
    02:00 +17°C° 0 mm 2 m/S 726 mmHg 90%
    03:00 +16°C° 0 mm 2 m/S 725 mmHg 90%
    04:00 +16°C° 0 mm 2 m/S 725 mmHg 91%
    05:00 +16°C° 0 mm 2 m/S 725 mmHg 92%
    06:00 +17°C° 0 mm 3 m/S 725 mmHg 85%
    07:00 +19°C° 0 mm 3 m/S 725 mmHg 79%
    08:00 +20°C° 0 mm 4 m/S 725 mmHg 72%
    09:00 +22°C° 0 mm 4 m/S 725 mmHg 66%
    10:00 +23°C° 0 mm 5 m/S 725 mmHg 60%
    11:00 +26°C° 0 mm 5 m/S 724 mmHg 53%
    12:00 +27°C° 0 mm 5 m/S 724 mmHg 50%
    13:00 +28°C° 0 mm 5 m/S 723 mmHg 46%
    14:00 +30°C° 0 mm 6 m/S 723 mmHg 42%
    15:00 +30°C° 0 mm 6 m/S 722 mmHg 42%
    16:00 +30°C° 0 mm 6 m/S 722 mmHg 42%
    17:00 +29°C° 0 mm 6 m/S 721 mmHg 42%
    18:00 +27°C° 0 mm 5 m/S 721 mmHg 51%
    19:00 +25°C° 0 mm 4 m/S 721 mmHg 59%
    20:00 +22°C° 0 mm 3 m/S 722 mmHg 67%
    21:00 +21°C° 0 mm 3 m/S 722 mmHg 73%
    22:00 +21°C° 0 mm 3 m/S 722 mmHg 78%
    23:00 +20°C° 0 mm 2 m/S 723 mmHg 84%

    übermorgen, 21 Januar, Montag

    Zeit Temperatur Niederschläge Wind Luftdruck Luftfeuchtigkeit
    00:00 +20°C° 0 mm 3 m/S 722 mmHg 85%
    01:00 +19°C° 0 mm 3 m/S 722 mmHg 86%
    02:00 +19°C° 0 mm 3 m/S 722 mmHg 87%
    03:00 +19°C° 0 mm 2 m/S 722 mmHg 87%
    04:00 +19°C° 0 mm 2 m/S 722 mmHg 86%
    05:00 +18°C° 0 mm 2 m/S 721 mmHg 86%
    06:00 +20°C° 0 mm 2 m/S 722 mmHg 78%
    07:00 +22°C° 0 mm 3 m/S 722 mmHg 70%
    08:00 +26°C° 0 mm 3 m/S 723 mmHg 62%
    09:00 +28°C° 0 mm 3 m/S 723 mmHg 55%
    10:00 +30°C° 0 mm 3 m/S 723 mmHg 48%
    11:00 +34°C° 0 mm 3 m/S 724 mmHg 41%
    12:00 +35°C° 0 mm 3 m/S 723 mmHg 39%
    13:00 +36°C° 0 mm 4 m/S 723 mmHg 36%
    14:00 +37°C° 0 mm 4 m/S 722 mmHg 34%
    15:00 +37°C° 0 mm 4 m/S 722 mmHg 36%
    16:00 +36°C° 0 mm 4 m/S 721 mmHg 38%
    17:00 +36°C° 0 mm 5 m/S 720 mmHg 40%
    18:00 +34°C° 0 mm 4 m/S 721 mmHg 47%
    19:00 +32°C° 0 mm 4 m/S 721 mmHg 53%
    20:00 +29°C° 0 mm 3 m/S 721 mmHg 59%
    21:00 +28°C° 0 mm 3 m/S 721 mmHg 63%
    22:00 +27°C° 0 mm 3 m/S 722 mmHg 67%
    23:00 +25°C° 0 mm 2 m/S 722 mmHg 71%

    22 Januar, Dienstag

    Zeit Temperatur Niederschläge Wind Luftdruck Luftfeuchtigkeit
    00:00 +25°C° 0 mm 2 m/S 722 mmHg 73%
    01:00 +25°C° 0 mm 2 m/S 721 mmHg 74%
    02:00 +24°C° 0 mm 2 m/S 721 mmHg 75%
    03:00 +24°C° 0 mm 2 m/S 721 mmHg 76%
    04:00 +23°C° 0 mm 2 m/S 720 mmHg 78%
    05:00 +23°C° 0 mm 2 m/S 720 mmHg 79%
    06:00 +25°C° 0 mm 3 m/S 721 mmHg 71%
    07:00 +27°C° 0 mm 3 m/S 721 mmHg 64%
    08:00 +29°C° 0 mm 4 m/S 721 mmHg 56%
    09:00 +32°C° 0 mm 5 m/S 721 mmHg 51%
    10:00 +34°C° 0 mm 5 m/S 721 mmHg 45%
    11:00 +36°C° 0 mm 6 m/S 721 mmHg 39%
    12:00 +38°C° 0 mm 6 m/S 721 mmHg 37%
    13:00 +39°C° 0 mm 6 m/S 720 mmHg 35%
    14:00 +40°C° 0 mm 6 m/S 719 mmHg 33%
    15:00 +40°C° 0 mm 6 m/S 719 mmHg 33%
    16:00 +40°C° 0 mm 6 m/S 719 mmHg 34%
    17:00 +40°C° 0 mm 6 m/S 718 mmHg 34%
    18:00 +37°C° 0 mm 5 m/S 718 mmHg 40%
    19:00 +35°C° 0 mm 4 m/S 719 mmHg 47%
    20:00 +33°C° 0 mm 3 m/S 719 mmHg 53%
    21:00 +30°C° 0 mm 2 m/S 720 mmHg 59%
    22:00 +29°C° 0 mm 1 m/S 720 mmHg 65%
    23:00 +26°C° 0 mm 0 m/S 720 mmHg 71%

    23 Januar, Mittwoch

    Zeit Temperatur Niederschläge Wind Luftdruck Luftfeuchtigkeit
    00:00 +28°C° 0.5 mm 1 m/S 720 mmHg 73%
    01:00 +27°C° 0.5 mm 1 m/S 720 mmHg 75%
    02:00 +27°C° 0.5 mm 1 m/S 720 mmHg 77%
    03:00 +27°C° 0 mm 1 m/S 720 mmHg 77%
    04:00 +27°C° 0 mm 1 m/S 720 mmHg 78%
    05:00 +26°C° 0 mm 1 m/S 720 mmHg 78%
    06:00 +27°C° 0.5 mm 1 m/S 720 mmHg 77%
    07:00 +28°C° 0.5 mm 2 m/S 721 mmHg 76%
    08:00 +29°C° 0.5 mm 3 m/S 721 mmHg 75%
    09:00 +30°C° 0.9 mm 3 m/S 721 mmHg 70%
    10:00 +31°C° 0.9 mm 3 m/S 722 mmHg 66%
    11:00 +34°C° 0.9 mm 3 m/S 722 mmHg 61%
    12:00 +34°C° 0.4 mm 4 m/S 721 mmHg 59%
    13:00 +35°C° 0.4 mm 4 m/S 721 mmHg 56%
    14:00 +36°C° 0.4 mm 4 m/S 721 mmHg 53%
    15:00 +35°C° 0.5 mm 4 m/S 721 mmHg 55%
    16:00 +35°C° 0.5 mm 4 m/S 720 mmHg 56%
    17:00 +34°C° 0.5 mm 4 m/S 720 mmHg 58%
    18:00 +33°C° 0.2 mm 3 m/S 720 mmHg 63%
    19:00 +30°C° 0.2 mm 3 m/S 721 mmHg 69%
    20:00 +29°C° 0.2 mm 2 m/S 721 mmHg 74%
    21:00 +28°C° 0.3 mm 2 m/S 721 mmHg 76%
    22:00 +27°C° 0.3 mm 1 m/S 721 mmHg 79%
    23:00 +26°C° 0.3 mm 1 m/S 721 mmHg 81%

    24 Januar, Donnerstag

    Zeit Temperatur Niederschläge Wind Luftdruck Luftfeuchtigkeit
    00:00 +26°C° 0.5 mm 1 m/S 721 mmHg 82%
    01:00 +26°C° 0.5 mm 2 m/S 721 mmHg 83%
    02:00 +25°C° 0.5 mm 2 m/S 720 mmHg 84%
    03:00 +25°C° 0.1 mm 2 m/S 720 mmHg 86%
    04:00 +25°C° 0.1 mm 2 m/S 720 mmHg 88%
    05:00 +24°C° 0.1 mm 2 m/S 720 mmHg 89%
    06:00 +25°C° 0 mm 2 m/S 720 mmHg 86%
    07:00 +26°C° 0 mm 2 m/S 721 mmHg 83%
    08:00 +27°C° 0 mm 2 m/S 721 mmHg 80%
    09:00 +29°C° 0 mm 3 m/S 721 mmHg 74%
    10:00 +32°C° 0 mm 4 m/S 721 mmHg 68%
    11:00 +33°C° 0 mm 4 m/S 720 mmHg 62%
    12:00 +35°C° 0 mm 4 m/S 720 mmHg 57%
    13:00 +36°C° 0 mm 5 m/S 719 mmHg 52%
    14:00 +37°C° 0 mm 5 m/S 719 mmHg 47%
    15:00 +39°C° 0 mm 5 m/S 718 mmHg 46%
    16:00 +39°C° 0 mm 6 m/S 718 mmHg 44%
    17:00 +40°C° 0 mm 6 m/S 717 mmHg 43%
    18:00 +37°C° 0 mm 5 m/S 717 mmHg 49%
    19:00 +35°C° 0 mm 4 m/S 718 mmHg 56%
    20:00 +33°C° 0 mm 3 m/S 718 mmHg 63%
    21:00 +31°C° 0 mm 3 m/S 718 mmHg 68%
    22:00 +30°C° 0 mm 2 m/S 718 mmHg 73%
    23:00 +29°C° 0 mm 2 m/S 718 mmHg 77%
    Mehr zeigen